This is the latest recevied weather packets stored in our database for station/object KO4DYK. If no packets are shown the sender has not sent any weather packets the latest 1 day(s).
| Time | Temp. | Humidity | Pressure | Rain* | Wind** | Luminosity | Snow |
|---|---|---|---|---|---|---|---|
| 1778024055 | 19.44° C | 97% | 1011.8 hPa | 0 mm | 1.79 m/s, 184° | 48 W/m² | - |
| 1778023753 | 19.44° C | 98% | 1011.8 hPa | 0 mm | 1.79 m/s, 158° | 53 W/m² | - |
| 1778023451 | 19.44° C | 98% | 1012 hPa | 0 mm | 1.34 m/s, 182° | 48 W/m² | - |
| 1778023147 | 18.89° C | 98% | 1012 hPa | 0 mm | 3.13 m/s, 197° | 49 W/m² | - |
| 1778022845 | 18.89° C | 98% | 1012 hPa | 0 mm | 2.24 m/s, 211° | 40 W/m² | - |
| 1778022543 | 18.89° C | 98% | 1011.8 hPa | 0 mm | 1.34 m/s, 167° | 73 W/m² | - |
| 1778022240 | 18.89° C | 98% | 1011.8 hPa | 0 mm | 1.34 m/s, 202° | 90 W/m² | - |
| 1778021936 | 18.89° C | 99% | 1011.7 hPa | 0 mm | 0.89 m/s, 182° | 102 W/m² | - |
| 1778021634 | 18.89° C | 99% | 1011.5 hPa | 0 mm | 1.34 m/s, 161° | 111 W/m² | - |
| 1778021329 | 18.89° C | 99% | 1011.4 hPa | 0 mm | 2.24 m/s, 201° | 124 W/m² | - |
| 1778021027 | 18.89° C | 99% | 1011.6 hPa | 0 mm | 1.34 m/s, 178° | 131 W/m² | - |
| 1778020723 | 18.89° C | 99% | 1011.6 hPa | 0 mm | 0.89 m/s, 176° | 131 W/m² | - |
| 1778020420 | 18.33° C | 99% | 1012 hPa | 0 mm | 2.24 m/s, 183° | 128 W/m² | - |
| 1778020116 | 18.33° C | 99% | 1011.9 hPa | 0 mm | 0.45 m/s, 179° | 120 W/m² | - |
| 1778019812 | 18.33° C | 99% | 1012 hPa | 0 mm | 3.58 m/s, 184° | 48 W/m² | - |
| 1778019510 | 18.33° C | 99% | 1012.3 hPa | 0 mm | 1.79 m/s, 190° | 35 W/m² | - |
| 1778019206 | 18.33° C | 99% | 1012 hPa | 0 mm | 2.24 m/s, 181° | 46 W/m² | - |
| 1778018903 | 18.33° C | 99% | 1012.4 hPa | 0 mm | 1.79 m/s, 170° | 49 W/m² | - |
| 1778018600 | 18.33° C | 99% | 1012.4 hPa | 0 mm | 2.68 m/s, 197° | 41 W/m² | - |
| 1778018298 | 17.78° C | 99% | 1012.6 hPa | 0 mm | 2.68 m/s, 222° | 37 W/m² | - |
| 1778017996 | 17.78° C | 99% | 1012.5 hPa | 0 mm | 1.34 m/s, 213° | 40 W/m² | - |
| 1778017694 | 17.78° C | 99% | 1012.5 hPa | 0 mm | 1.34 m/s, 187° | 45 W/m² | - |
| 1778017391 | 17.78° C | 99% | 1012.6 hPa | 0 mm | 2.68 m/s, 201° | 44 W/m² | - |
| 1778017088 | 17.78° C | 99% | 1012.6 hPa | 0 mm | 1.79 m/s, 188° | 49 W/m² | - |
| 1778016786 | 17.78° C | 99% | 1012.6 hPa | 0 mm | 0.89 m/s, 142° | 50 W/m² | - |
* Rain latest hour (hover to see other rain measurements)
** Current wind speed in m/s (hover to see current wind gust speed)